Home   Weather   São Paulo   Past weeks
Flag for Brazil

Past Weather in São Paulo, São Paulo, Brazil — Yesterday and Last 2 Weeks

Now
75 °F

Mild.


Feels Like: 77 °F
Forecast: 83 / 70 °F
Wind: 5 mph from Northeast

Location: Sao Paulo Airport

Current Time: Feb 20, 2019 at 2:40:00 am

Latest Report: Feb 20, 2019 at 2:00 am


Visibility: N/A

Pressure: 29.98 "Hg (27.46 "Hg at 765m altitude)

Humidity: 69%

Dew Point: 64 °F

Location of São PauloLocation

Past Weather in São Paulo — Graph

°F

São Paulo Temperature Yesterday

Maximum temperature yesterday: 84 °F (at 2:00 pm)
Minimum temperature yesterday: 72 °F (at 3:00 am)
Average temperature yesterday: 78 °F

High & Low Weather Summary for the Past Weeks

 TemperatureHumidityPressure
High90 °F (Feb 10, 5:00 pm)100% (Feb 12, 6:12 pm)30.15 "Hg (Feb 12, 6:12 pm)
Low39 °F (Feb 12, 6:12 pm)29% (Feb 9, 4:00 pm)29.83 "Hg (Feb 15, 8:00 pm)
Average71 °F77%30.02 "Hg
* Reported Feb 5 2:00 am — Feb 20 1:00 am, São Paulo. Weather by CustomWeather, © 2019

Note: Actual official high and low records may vary slightly from our data, if they occured in-between our weather recording intervals... More about our weather records

Advertising

São Paulo Weather History for the Previous 24 Hours

Scroll right to see more
 ConditionsComfort  
Time TempWeatherWind HumidityBarometerVisibility
1:00 am
Wed, Feb 20
75 °FPassing clouds.3 mph69%29.98 "HgN/A
12:09 am73 °FPassing clouds.2 mph74%30.01 "HgN/A
12:00 am73 °FPartly cloudy.No wind74%30.01 "HgN/A
11:03 pm
Tue, Feb 19
75 °FClear.6 mph69%30.01 "HgN/A
10:00 pm79 °FClear.6 mph58%30.01 "Hg10 mi
9:00 pm81 °FClear.6 mph51%29.98 "Hg10 mi
8:00 pm82 °FPassing clouds.7 mph48%29.95 "HgN/A
7:00 pm82 °FPassing clouds.9 mph48%29.92 "HgN/A
6:00 pm84 °FScattered clouds.10 mph45%29.92 "HgN/A
5:00 pm84 °FPartly sunny.12 mph45%29.89 "HgN/A
4:00 pm84 °FPartly sunny.13 mph45%29.89 "HgN/A
3:00 pm84 °FPartly sunny.15 mph45%29.92 "HgN/A
2:00 pm84 °FPartly sunny.13 mph51%29.95 "HgN/A
1:00 pm82 °FScattered clouds.13 mph55%30.01 "HgN/A
12:00 pm82 °FScattered clouds.15 mph58%30.01 "HgN/A
11:00 am79 °FScattered clouds.16 mph61%30.04 "HgN/A
10:00 am77 °FPartly sunny.13 mph69%30.04 "HgN/A
9:00 am75 °FPartly sunny.15 mph74%30.07 "HgN/A
8:00 am73 °FPartly sunny.14 mph78%30.04 "HgN/A
7:00 am72 °FPassing clouds.9 mph83%30.04 "HgN/A
6:00 am72 °FScattered clouds.7 mph83%30.01 "HgN/A
5:00 am72 °FPassing clouds.3 mph83%29.98 "HgN/A
4:00 am72 °FPassing clouds.5 mph83%29.98 "HgN/A
3:00 am72 °FClear.6 mph83%29.98 "Hg10 mi
2:00 am73 °FPassing clouds.7 mph78%29.98 "HgN/A
Weather by CustomWeather, © 2019

See weather overview